Terminal Aerodrome Forecast
Issued by NWS

Home | Current Version | Previous Version | Text Only | Print | Product List | Glossary On
Versions: 1 2 3 4 5 6 7 8 9 10 11 12 13 14 15 16 17 18 19 20 21 22 23 24 25 26 27 28 29 30 31 32 33 34 35 36 37 38 39 40 41 42 43 44 45 46 47 48 49 50
560
FTUS41 KCTP 250925 AAB
TAFJST
TAF AMD
KJST 250925Z 2509/2606 21009KT P6SM SCT250
     FM251200 21011G18KT P6SM SCT150 WS020/24040KT
     FM251400 22011G19KT P6SM BKN060 OVC150
      TEMPO 2516/2520 4SM -SHRA OVC025
     FM252000 27011G19KT P6SM BKN020 PROB30 2520/2521 4SM -SHRA
      OVC007
     FM252100 26010G18KT P6SM BKN015 PROB30 2521/2523 4SM -SHRA
      OVC007
     FM252300 28010G18KT P6SM BKN020 PROB30 2523/2605 4SM -SHRASN
      OVC007=

USA.gov is the U.S. government's official web portal to all federal, state and local government web resources and services.